Weather History for Bennington, VT

Change the Weather History Date:

Friday, March 29, 2013

  Actual Average Record
Temperature  
Mean Temperature 39 °F 38 °F  
Max Temperature 48 °F 49 °F 66 °F (2003)
Min Temperature 30 °F 27 °F 19 °F (2008)
Degree Days  
Heating Degree Days 26 27  
Month to date heating degree days 966 932  
Since 1 July heating degree days 5750 6183  
Cooling Degree Days 0 0  
Month to date cooling degree days 0 0  
Year to date cooling degree days 0 0  
Moisture  
Dew Point 29 °F    
Average Humidity 67    
Maximum Humidity 85    
Minimum Humidity 49    
Precipitation  
Precipitation 0.00 in 0.10 in 0.54 in (2003)
Month to date precipitation 1.06 2.94  
Year to date precipitation 3.72 7.93  
Sea Level Pressure  
Sea Level Pressure 30.08 in    
Wind  
Wind Speed 4 mph (West)    
Max Wind Speed 12 mph    
Max Gust Speed 33 mph    
Visibility 10 miles    
Events      
T = Trace of Precipitation, MM = Missing Value Source: NWS Daily Summary

Daily Weather History Graph

Daily Weather History Graph

Search for Another Location

Airport:

Trip Planner

Search our weather history database for the weather conditions in past years. The results will help you decide how hot, cold, wet, or windy it might be!

Date:

Astronomy

Mar. 29, 2013 Rise Set
Actual Time 6:39 AM EDT 7:16 PM EDT
Civil Twilight 6:11 AM EDT 7:44 PM EDT
Nautical Twilight 5:37 AM EDT 8:18 PM EDT
Astronomical Twilight 5:03 AM EDT 8:53 PM EDT
Moon 10:18 PM EDT (3/29) 7:42 AM EDT (3/29)
Length of Visible Light 13h 33m
Length of Day
12h 36m
Waning Gibbous, 93% of the Moon is Illuminated
Mar 29
Waning Gibbous
Apr 3
Last Quarter
Apr 10
New
Apr 18
First Quarter
Apr 25
Full

Hourly Weather History & Observations

Time (EDT) Temp. Windchill Dew Point Humidity Pressure Visibility Wind Dir Wind Speed Gust Speed Precip Events Conditions
12:54 AM 39.0 °F 34.8 °F 30.9 °F 73% 30.09 in 10.0 mi WSW 5.8 mph - N/A   Overcast
1:54 AM 37.9 °F 34.4 °F 30.9 °F 76% 30.09 in 10.0 mi West 4.6 mph - N/A   Overcast
2:54 AM 37.9 °F 35.5 °F 28.9 °F 70% 30.09 in 10.0 mi Variable 3.5 mph - N/A   Overcast
3:54 AM 37.0 °F - 28.9 °F 73% 30.10 in 10.0 mi Calm Calm - N/A   Overcast
4:54 AM 36.0 °F 33.3 °F 28.0 °F 73% 30.10 in 10.0 mi WSW 3.5 mph - N/A   Mostly Cloudy
5:54 AM 30.0 °F - 26.1 °F 85% 30.10 in 10.0 mi Calm Calm - N/A   Clear
6:54 AM 30.9 °F - 27.0 °F 85% 30.11 in 10.0 mi Calm Calm - N/A   Overcast
7:54 AM 32.0 °F - 28.0 °F 85% 30.11 in 10.0 mi Calm Calm - N/A   Clear
8:54 AM 37.9 °F 35.5 °F 28.9 °F 70% 30.12 in 10.0 mi WNW 3.5 mph - N/A   Mostly Cloudy
9:54 AM 41.0 °F - 30.0 °F 65% 30.11 in 10.0 mi Calm Calm - N/A   Mostly Cloudy
10:17 AM 42.8 °F 39.3 °F 30.2 °F 61% 30.09 in 10.0 mi West 5.8 mph - N/A   Overcast
10:54 AM 43.0 °F - 30.0 °F 60% 30.10 in 10.0 mi Calm Calm - N/A   Mostly Cloudy
11:34 AM 44.6 °F 40.2 °F 28.4 °F 53% 30.08 in 10.0 mi NNW 8.1 mph - N/A   Overcast
11:54 AM 46.9 °F - 30.0 °F 52% 30.09 in 10.0 mi NW 4.6 mph - N/A   Mostly Cloudy
12:54 PM 46.9 °F - 28.0 °F 48% 30.07 in 10.0 mi WNW 5.8 mph - N/A   Overcast
1:54 PM 45.0 °F 39.7 °F 28.9 °F 53% 30.06 in 10.0 mi WNW 10.4 mph - N/A   Overcast
2:54 PM 46.9 °F - 28.0 °F 48% 30.04 in 10.0 mi WNW 6.9 mph - N/A   Overcast
3:54 PM 46.0 °F 42.5 °F 28.0 °F 50% 30.03 in 10.0 mi West 6.9 mph - N/A   Overcast
4:54 PM 44.1 °F 41.5 °F 28.0 °F 53% 30.04 in 10.0 mi West 4.6 mph - N/A   Overcast
5:54 PM 44.1 °F 40.1 °F 28.9 °F 55% 30.05 in 10.0 mi West 6.9 mph - N/A   Overcast
6:54 PM 42.1 °F 39.2 °F 28.9 °F 60% 30.06 in 10.0 mi Variable 4.6 mph - N/A   Overcast
7:54 PM 41.0 °F 35.8 °F 28.9 °F 62% 30.06 in 10.0 mi WSW 8.1 mph - N/A   Overcast
8:54 PM 41.0 °F - 28.9 °F 62% 30.08 in 10.0 mi Calm Calm - N/A   Overcast
9:54 PM 41.0 °F 38.0 °F 27.0 °F 57% 30.09 in 10.0 mi West 4.6 mph - N/A   Overcast
10:54 PM 39.9 °F 36.7 °F 27.0 °F 60% 30.09 in 10.0 mi West 4.6 mph - N/A   Overcast
11:54 PM 39.0 °F 35.7 °F 27.0 °F 62% 30.09 in 10.0 mi West 4.6 mph - N/A   Overcast